FW6620 Weather Reports


time (UTC)temp
C
wind
direction
speed
KPH
gust
KPH
rain 1hr
cm
rain 24hr
cm
rain mn
cm
humidity
%
barometer
mb
20260901025545 32 66 0.0 9.7 0.00 0.00 0.00 53 1015.2
20260901025045 32 0 0.0 9.7 0.00 0.00 0.00 53 1015.1
20260901024603 32 155 1.6 6.4 0.00 0.00 0.00 52 1015.0
20260901024045 32 87 0.0 4.8 0.00 0.00 0.00 51 1014.9
20260901023545 32 71 0.0 4.8 0.00 0.00 0.00 49 1014.9
20260901023106 32 70 0.0 4.8 0.00 0.00 0.00 49 1014.7
20260901022544 32 0 0.0 0.0 0.00 0.00 0.00 49 1014.6
20260901022045 32 0 0.0 1.6 0.00 0.00 0.00 49 1014.4
20260901021558 32 0 0.0 3.2 0.00 0.00 0.00 49 1014.4
20260901021049 32 0 0.0 3.2 0.00 0.00 0.00 49 1014.3
20260901020545 32 0 0.0 3.2 0.00 0.00 0.00 49 1014.2
20260901020059 32 75 0.0 1.6 0.00 0.00 0.00 48 1014.2
20260901015544 32 0 0.0 1.6 0.00 0.00 0.00 48 1014.1
20260901015045 32 0 0.0 0.0 0.00 0.00 0.00 48 1014.1
20260901014600 33 0 0.0 0.0 0.00 0.00 0.00 50 1013.9
20260901014049 33 0 0.0 0.0 0.00 0.00 0.00 49 1014.0
20260901013545 33 0 0.0 0.0 0.00 0.00 0.00 49 1013.9
20260901013108 33 0 0.0 0.0 0.00 0.00 0.00 51 1013.9
20260901012544 33 0 0.0 0.0 0.00 0.00 0.00 48 1013.8
20260901012045 33 0 0.0 0.0 0.00 0.00 0.00 48 1013.9
20260901011604 33 0 0.0 0.0 0.00 0.00 0.00 46 1013.7
20260901011046 33 0 0.0 0.0 0.00 0.00 0.00 47 1013.7
20260901010545 33 0 0.0 1.6 0.00 0.00 0.00 46 1013.7
20260901010058 34 0 0.0 1.6 0.00 0.00 0.00 45 1013.6
20260901005547 34 0 0.0 3.2 0.00 0.00 0.00 44 1013.6
20260901005045 34 0 0.0 3.2 0.00 0.00 0.00 45 1013.5
20260901004603 34 0 0.0 3.2 0.00 0.00 0.00 44 1013.5
20260901004044 34 0 0.0 1.6 0.00 0.00 0.00 45 1013.6
20260901003544 34 0 0.0 3.2 0.00 0.00 0.00 44 1013.6
20260901003108 34 76 0.0 3.2 0.00 0.00 0.00 44 1013.6
20260901002544 35 0 0.0 3.2 0.00 0.00 0.00 44 1013.6
20260901002045 35 76 0.0 4.8 0.00 0.00 0.00 44 1013.6
20260901001556 35 0 0.0 4.8 0.00 0.00 0.00 44 1013.6
20260901001047 35 0 0.0 4.8 0.00 0.00 0.00 43 1013.5
20260901000546 35 76 0.0 3.2 0.00 0.00 0.00 43 1013.5
20260901000055 35 0 0.0 1.6 0.00 0.00 0.00 44 1013.5
20260831235543 35 0 0.0 3.2 0.00 0.00 0.00 45 1013.5
20260831235049 35 0 0.0 4.8 0.00 0.00 0.00 44 1013.4
20260831234600 35 76 0.0 4.8 0.00 0.00 0.00 44 1013.4
20260831234046 35 0 0.0 4.8 0.00 0.00 0.00 44 1013.5
20260831233545 35 0 0.0 3.2 0.00 0.00 0.00 45 1013.4
20260831233058 35 0 0.0 3.2 0.00 0.00 0.00 44 1013.5
20260831232544 35 0 0.0 3.2 0.00 0.00 0.00 44 1013.4
20260831232044 35 0 0.0 3.2 0.00 0.00 0.00 44 1013.5
20260831231611 35 74 0.0 3.2 0.00 0.00 0.00 45 1013.5
20260831231045 36 74 0.0 4.8 0.00 0.00 0.00 46 1013.5
20260831230545 36 0 0.0 4.8 0.00 0.00 0.00 43 1013.5
20260831230054 36 0 0.0 6.4 0.00 0.00 0.00 43 1013.6
20260831225544 36 0 0.0 11.3 0.00 0.00 0.00 44 1013.6
20260831225045 36 56 1.6 11.3 0.00 0.00 0.00 44 1013.5
20260831224600 36 0 1.6 4.8 0.00 0.00 0.00 44 1013.5
20260831224045 36 0 0.0 4.8 0.00 0.00 0.00 45 1013.6
20260831223545 36 63 0.0 6.4 0.00 0.00 0.00 43 1013.6
20260831223108 36 62 0.0 6.4 0.00 0.00 0.00 44 1013.8
20260831222545 36 62 1.6 11.3 0.00 0.00 0.00 45 1013.8
20260831222044 36 0 1.6 11.3 0.00 0.00 0.00 44 1013.9
20260831221603 36 60 1.6 6.4 0.00 0.00 0.00 44 1013.8
20260831221045 36 0 0.0 4.8 0.00 0.00 0.00 45 1013.8
20260831220545 36 0 0.0 4.8 0.00 0.00 0.00 46 1013.8
20260831220055 36 0 0.0 4.8 0.00 0.00 0.00 47 1013.7
20260831215545 36 0 0.0 1.6 0.00 0.00 0.00 45 1013.8
20260831215047 36 0 0.0 6.4 0.00 0.00 0.00 46 1013.9
20260831214559 36 0 0.0 6.4 0.00 0.00 0.00 45 1014.0
20260831214045 36 61 0.0 4.8 0.00 0.00 0.00 44 1014.1
20260831213544 37 61 1.6 4.8 0.00 0.00 0.00 45 1014.2
20260831213100 37 0 1.6 6.4 0.00 0.00 0.00 45 1014.2
20260831212545 37 0 0.0 6.4 0.00 0.00 0.00 46 1014.2
20260831212045 36 60 0.0 6.4 0.00 0.00 0.00 45 1014.3
20260831211604 36 0 0.0 6.4 0.00 0.00 0.00 46 1014.3
20260831211045 36 63 1.6 9.7 0.00 0.00 0.00 43 1014.4
20260831210544 36 0 1.6 11.3 0.00 0.00 0.00 44 1014.5
20260831210100 36 0 1.6 11.3 0.00 0.00 0.00 44 1014.6
20260831205545 36 56 1.6 11.3 0.00 0.00 0.00 46 1014.7
20260831205045 36 64 0.0 6.4 0.00 0.00 0.00 46 1014.7
20260831204557 36 0 0.0 3.2 0.00 0.00 0.00 46 1014.8
20260831204045 36 0 0.0 11.3 0.00 0.00 0.00 48 1015.0
20260831203544 36 74 1.6 11.3 0.00 0.00 0.00 47 1015.1
20260831203057 36 51 1.6 9.7 0.00 0.00 0.00 47 1015.2
20260831202544 36 0 0.0 11.3 0.00 0.00 0.00 48 1015.3
20260831202046 36 55 1.6 11.3 0.00 0.00 0.00 50 1015.4
20260831201601 36 78 0.0 3.2 0.00 0.00 0.00 48 1015.4
20260831201045 36 78 0.0 6.4 0.00 0.00 0.00 48 1015.6
20260831200545 35 0 0.0 6.4 0.00 0.00 0.00 49 1015.7
20260831200058 35 73 0.0 3.2 0.00 0.00 0.00 49 1015.6
20260831195548 35 74 0.0 9.7 0.00 0.00 0.00 48 1015.7
20260831195045 35 73 1.6 11.3 0.00 0.00 0.00 50 1015.9
20260831194641 35 53 3.2 11.3 0.00 0.00 0.00 49 1016.0
20260831194045 35 56 1.6 6.4 0.00 0.00 0.00 49 1016.0
20260831193545 35 0 0.0 4.8 0.00 0.00 0.00 50 1016.0
20260831193059 35 0 0.0 4.8 0.00 0.00 0.00 51 1016.1
20260831192545 35 67 1.6 11.3 0.00 0.00 0.00 52 1016.2
20260831192045 35 0 0.0 11.3 0.00 0.00 0.00 49 1016.2
20260831191556 35 64 1.6 11.3 0.00 0.00 0.00 51 1016.4
20260831191044 35 66 0.0 6.4 0.00 0.00 0.00 53 1016.4
20260831190548 35 66 1.6 6.4 0.00 0.00 0.00 52 1016.4
20260831185545 35 0 1.6 9.7 0.00 0.00 0.00 53 1016.6
20260831185044 35 56 1.6 12.9 0.00 0.00 0.00 53 1016.7
20260831184557 35 0 3.2 12.9 0.00 0.00 0.00 54 1016.8
20260831184045 35 55 3.2 12.9 0.00 0.00 0.00 54 1016.9
20260831183548 35 62 0.0 6.4 0.00 0.00 0.00 57 1016.9
20260831183058 34 0 0.0 9.7 0.00 0.00 0.00 55 1016.9
20260831182546 34 62 1.6 11.3 0.00 0.00 0.00 56 1016.9
20260831182047 34 64 1.6 11.3 0.00 0.00 0.00 54 1016.9
20260831181556 34 73 0.0 4.8 0.00 0.00 0.00 57 1016.9
20260831181050 34 63 0.0 4.8 0.00 0.00 0.00 57 1017.0
20260831180546 34 61 0.0 6.4 0.00 0.00 0.00 57 1017.1
20260831180056 33 70 0.0 6.4 0.00 0.00 0.00 60 1017.3
20260831175547 33 187 1.6 6.4 0.00 0.00 0.00 60 1017.3
20260831175048 33 62 0.0 6.4 0.00 0.00 0.00 59 1017.4
20260831174601 33 62 1.6 11.3 0.00 0.00 0.00 62 1017.5
20260831174050 33 0 1.6 11.3 0.00 0.00 0.00 60 1017.5
20260831173546 33 66 0.0 11.3 0.00 0.00 0.00 63 1017.5
20260831173057 33 56 3.2 11.3 0.00 0.00 0.00 61 1017.7
20260831172546 33 61 1.6 6.4 0.00 0.00 0.00 63 1017.7
20260831172046 32 61 0.0 11.3 0.00 0.00 0.00 65 1017.8
20260831171559 32 62 0.0 11.3 0.00 0.00 0.00 63 1017.8
20260831171047 32 61 1.6 11.3 0.00 0.00 0.00 64 1017.8
20260831170546 32 66 0.0 4.8 0.00 0.00 0.00 63 1017.7
20260831170052 32 0 0.0 4.8 0.00 0.00 0.00 66 1017.8
20260831165549 32 0 0.0 9.7 0.00 0.00 0.00 67 1017.9
20260831165046 32 66 0.0 9.7 0.00 0.00 0.00 67 1018.0
20260831164600 32 0 1.6 9.7 0.00 0.00 0.00 67 1017.9
20260831164046 31 58 1.6 9.7 0.00 0.00 0.00 69 1017.9
20260831163546 31 58 0.0 4.8 0.00 0.00 0.00 71 1017.9
20260831163057 31 0 1.6 9.7 0.00 0.00 0.00 71 1018.0
20260831162547 30 0 0.0 9.7 0.00 0.00 0.00 71 1017.9
20260831162050 30 0 1.6 9.7 0.00 0.00 0.00 72 1018.0
20260831161605 30 66 0.0 4.8 0.00 0.00 0.00 73 1018.0
20260831161047 30 0 0.0 6.4 0.00 0.00 0.00 73 1017.9
20260831160546 30 0 0.0 6.4 0.00 0.00 0.00 72 1018.0
20260831160051 30 67 1.6 6.4 0.00 0.00 0.00 72 1017.9
20260831155547 30 67 0.0 6.4 0.00 0.00 0.00 74 1017.9
20260831155047 30 68 0.0 4.8 0.00 0.00 0.00 75 1017.8
20260831154629 30 0 1.6 4.8 0.00 0.00 0.00 75 1017.8
20260831154047 29 68 1.6 4.8 0.00 0.00 0.00 76 1017.9
20260831153546 29 58 0.0 9.7 0.00 0.00 0.00 77 1017.9
20260831153116 28 58 1.6 9.7 0.00 0.00 0.00 78 1017.8
20260831152547 28 0 0.0 6.4 0.00 0.00 0.00 78 1017.8
20260831152046 28 55 1.6 9.7 0.00 0.00 0.00 78 1017.8
20260831151601 28 0 1.6 9.7 0.00 0.00 0.00 79 1017.8
20260831151046 28 53 3.2 14.5 0.00 0.00 0.00 77 1017.7
20260831150547 28 62 3.2 14.5 0.00 0.00 0.00 78 1017.7
20260831145549 28 0 1.6 6.4 0.00 0.00 0.00 81 1017.8
20260831145046 28 60 0.0 6.4 0.00 0.00 0.00 82 1017.6
20260831144644 28 60 0.0 6.4 0.00 0.00 0.00 83 1017.6
20260831144046 28 60 1.6 6.4 0.00 0.00 0.00 84 1017.5
20260831143550 27 0 0.0 6.4 0.00 0.00 0.00 85 1017.6
20260831143100 27 57 0.0 6.4 0.00 0.00 0.00 86 1017.5
20260831142549 27 0 1.6 6.4 0.00 0.00 0.00 87 1017.4
20260831142046 27 0 0.0 4.8 0.00 0.00 0.00 87 1017.5
20260831141557 27 0 0.0 9.7 0.00 0.00 0.00 87 1017.5
20260831141043 27 0 0.0 9.7 0.00 0.00 0.00 88 1017.4
20260831140546 27 0 0.0 4.8 0.00 0.00 0.00 89 1017.4
20260831140052 26 0 1.6 4.8 0.00 0.00 0.00 89 1017.3
20260831135547 26 0 0.0 4.8 0.00 0.00 0.00 91 1017.2
20260831135047 26 0 0.0 4.8 0.00 0.00 0.00 90 1017.3
20260831134601 26 0 0.0 1.6 0.00 0.00 0.00 91 1017.3
20260831134047 26 0 0.0 1.6 0.00 0.00 0.00 92 1017.2
20260831133546 26 0 0.0 3.2 0.00 0.00 0.00 92 1017.2
20260831133103 26 0 0.0 4.8 0.00 0.00 0.00 92 1017.1
20260831132546 26 0 0.0 4.8 0.00 0.00 0.00 92 1017.1
20260831132046 26 0 0.0 4.8 0.00 0.00 0.00 92 1017.1
20260831131604 25 58 0.0 4.8 0.00 0.00 0.00 92 1016.9
20260831131046 25 0 0.0 4.8 0.00 0.00 0.00 92 1017.0
20260831130545 25 58 0.0 3.2 0.00 0.00 0.00 93 1016.9
20260831130109 25 0 0.0 0.0 0.00 0.00 0.00 92 1016.8
20260831125546 25 0 0.0 0.0 0.00 0.00 0.00 91 1016.8
20260831125046 25 0 0.0 0.0 0.00 0.00 0.00 92 1016.6
20260831124603 25 0 0.0 0.0 0.00 0.00 0.00 92 1016.6
20260831124046 25 0 0.0 0.0 0.00 0.00 0.00 92 1016.6
20260831123546 25 0 0.0 0.0 0.00 0.00 0.00 92 1016.6
20260831123100 25 0 0.0 0.0 0.00 0.00 0.00 92 1016.5
20260831122546 25 0 0.0 0.0 0.00 0.00 0.00 91 1016.4
20260831122046 25 0 0.0 0.0 0.00 0.00 0.00 91 1016.6
20260831121558 25 0 0.0 0.0 0.00 0.00 0.00 91 1016.6
20260831121044 26 0 0.0 0.0 0.00 0.00 0.00 91 1016.5
20260831120547 26 0 0.0 0.0 0.00 0.00 0.00 91 1016.5
20260831120049 26 0 0.0 0.0 0.00 0.00 0.00 91 1016.4
20260831115545 26 0 0.0 0.0 0.00 0.00 0.00 91 1016.4
20260831115046 26 0 0.0 0.0 0.00 0.00 0.00 91 1016.3
20260831114601 26 0 0.0 3.2 0.00 0.00 0.00 91 1016.4
20260831114046 26 0 0.0 3.2 0.00 0.00 0.00 91 1016.5
20260831113547 26 0 0.0 3.2 0.00 0.00 0.00 91 1016.5
20260831113105 26 0 0.0 3.2 0.00 0.00 0.00 90 1016.5
20260831112547 26 0 0.0 3.2 0.00 0.00 0.00 90 1016.6
20260831112046 26 0 0.0 1.6 0.00 0.00 0.00 90 1016.5
20260831111557 26 0 0.0 1.6 0.00 0.00 0.00 90 1016.4
20260831111046 26 0 0.0 3.2 0.00 0.00 0.00 90 1016.3
20260831110546 26 0 0.0 3.2 0.00 0.00 0.00 90 1016.4
20260831110059 26 0 0.0 3.2 0.00 0.00 0.00 90 1016.4
20260831105546 26 0 0.0 1.6 0.00 0.00 0.00 90 1016.4
20260831105046 26 58 0.0 0.0 0.00 0.00 0.00 90 1016.3
20260831104603 26 0 0.0 0.0 0.00 0.00 0.00 90 1016.3
20260831104047 26 0 0.0 0.0 0.00 0.00 0.00 90 1016.3
20260831103546 26 0 0.0 1.6 0.00 0.00 0.00 90 1016.3
20260831103056 26 0 0.0 1.6 0.00 0.00 0.00 90 1016.3
20260831102546 26 0 0.0 1.6 0.00 0.00 0.00 90 1016.3
20260831102046 26 0 0.0 1.6 0.00 0.00 0.00 89 1016.3
20260831101556 26 0 0.0 4.8 0.00 0.00 0.00 89 1016.3
20260831101046 26 0 0.0 4.8 0.00 0.00 0.00 89 1016.3
20260831100547 26 59 0.0 1.6 0.00 0.00 0.00 89 1016.4
20260831100119 26 0 0.0 4.8 0.00 0.00 0.00 89 1016.3
20260831095546 26 0 0.0 4.8 0.00 0.00 0.00 89 1016.3
20260831095047 26 0 0.0 4.8 0.00 0.00 0.00 89 1016.4
20260831094558 26 0 0.0 4.8 0.00 0.00 0.00 88 1016.4
20260831094047 26 0 0.0 4.8 0.00 0.00 0.00 88 1016.3
20260831093547 26 0 0.0 4.8 0.00 0.00 0.00 88 1016.4
20260831093058 26 0 0.0 6.4 0.00 0.00 0.00 88 1016.3
20260831092549 26 0 0.0 6.4 0.00 0.00 0.00 88 1016.3
20260831092046 26 64 0.0 9.7 0.00 0.00 0.00 88 1016.1
20260831091605 26 0 0.0 9.7 0.00 0.00 0.00 88 1016.1
20260831091046 26 62 0.0 3.2 0.00 0.00 0.00 88 1016.1
20260831090546 26 0 0.0 4.8 0.00 0.00 0.00 88 1016.1
20260831090059 26 0 0.0 9.7 0.00 0.00 0.00 88 1016.2
20260831085546 26 0 0.0 9.7 0.00 0.00 0.00 87 1016.1
20260831085047 26 62 0.0 4.8 0.00 0.00 0.00 87 1016.1
20260831084636 26 0 0.0 1.6 0.00 0.00 0.00 87 1016.2
20260831084046 26 0 0.0 4.8 0.00 0.00 0.00 87 1016.1
20260831083546 26 0 1.6 11.3 0.00 0.00 0.00 87 1016.2
20260831083058 26 57 0.0 11.3 0.00 0.00 0.00 87 1016.3
20260831082546 26 60 1.6 11.3 0.00 0.00 0.00 86 1016.3
20260831082046 27 0 0.0 9.7 0.00 0.00 0.00 86 1016.4
20260831081604 26 0 1.6 12.9 0.00 0.00 0.00 86 1016.4
20260831081046 26 0 0.0 12.9 0.00 0.00 0.00 86 1016.3
20260831080549 27 51 0.0 4.8 0.00 0.00 0.00 85 1016.4
20260831080120 27 64 1.6 6.4 0.00 0.00 0.00 85 1016.4
20260831075545 27 60 0.0 6.4 0.00 0.00 0.00 86 1016.4
20260831075046 27 70 0.0 6.4 0.00 0.00 0.00 85 1016.4
20260831074606 27 0 1.6 9.7 0.00 0.00 0.00 84 1016.4
20260831074046 27 75 0.0 9.7 0.00 0.00 0.00 84 1016.5
20260831073546 27 70 0.0 9.7 0.00 0.00 0.00 83 1016.4
20260831073055 27 0 1.6 11.3 0.00 0.00 0.00 83 1016.3
20260831072548 27 70 0.0 11.3 0.00 0.00 0.00 82 1016.3
20260831072045 27 0 1.6 9.7 0.00 0.00 0.00 82 1016.3
20260831071611 27 0 1.6 9.7 0.00 0.00 0.00 82 1016.3
20260831071046 27 66 0.0 11.3 0.00 0.00 0.00 81 1016.3
20260831070547 27 75 1.6 11.3 0.00 0.00 0.00 81 1016.4
20260831070100 27 62 3.2 12.9 0.00 0.00 0.00 80 1016.5
20260831065545 27 100 1.6 12.9 0.00 0.00 0.00 79 1016.5
20260831065046 27 74 1.6 14.5 0.00 0.00 0.00 78 1016.6
20260831064553 28 60 3.2 14.5 0.00 0.00 0.00 78 1016.4
20260831064045 28 66 0.0 6.4 0.00 0.00 0.00 77 1016.4
20260831063545 28 0 1.6 12.9 0.00 0.00 0.00 77 1016.5
20260831063112 28 67 0.0 14.5 0.00 0.00 0.00 77 1016.5
20260831062549 28 54 1.6 14.5 0.00 0.00 0.00 76 1016.5
20260831062047 28 68 1.6 9.7 0.00 0.00 0.00 76 1016.4
20260831061558 28 0 1.6 6.4 0.00 0.00 0.00 76 1016.3
20260831061047 28 68 1.6 9.7 0.00 0.00 0.00 75 1016.4
20260831060546 28 0 1.6 9.7 0.00 0.00 0.00 75 1016.4
20260831060104 28 58 1.6 12.9 0.00 0.00 0.00 75 1016.4
20260831055546 28 61 1.6 14.5 0.00 0.00 0.00 75 1016.3
20260831055046 28 63 4.8 14.5 0.00 0.00 0.00 74 1016.2
20260831054605 29 62 1.6 9.7 0.00 0.00 0.00 74 1016.1
20260831054046 29 0 1.6 9.7 0.00 0.00 0.00 74 1016.0
20260831053546 29 60 0.0 9.7 0.00 0.00 0.00 73 1015.9
20260831053117 29 53 1.6 9.7 0.00 0.00 0.00 73 1016.0
20260831052547 29 0 0.0 11.3 0.00 0.00 0.00 72 1016.0
20260831052045 29 61 3.2 16.1 0.00 0.00 0.00 72 1015.9
20260831051559 29 67 0.0 16.1 0.00 0.00 0.00 71 1015.8
20260831051045 30 62 1.6 12.9 0.00 0.00 0.00 71 1015.8
20260831050546 30 66 1.6 12.9 0.00 0.00 0.00 70 1015.9
20260831050115 30 57 3.2 11.3 0.00 0.00 0.00 69 1015.8
20260831045546 30 0 1.6 9.7 0.00 0.00 0.00 69 1015.9
20260831045046 30 0 0.0 9.7 0.00 0.00 0.00 68 1015.7
20260831044602 30 56 1.6 9.7 0.00 0.00 0.00 68 1015.8
20260831044046 30 61 0.0 9.7 0.00 0.00 0.00 67 1015.8
20260831043546 30 0 1.6 9.7 0.00 0.00 0.00 67 1015.8
20260831043059 30 0 0.0 12.9 0.00 0.00 0.00 66 1015.7
20260831042546 30 70 1.6 12.9 0.00 0.00 0.00 66 1015.7
20260831042046 30 70 1.6 11.3 0.00 0.00 0.00 65 1015.8
20260831041617 30 56 1.6 11.3 0.00 0.00 0.00 65 1015.7
20260831041046 31 0 0.0 11.3 0.00 0.00 0.00 64 1015.9
20260831040546 31 62 1.6 9.7 0.00 0.00 0.00 64 1015.8
20260831040057 31 0 0.0 9.7 0.00 0.00 0.00 64 1015.8
20260831035545 31 64 0.0 14.5 0.00 0.00 0.00 63 1015.7
20260831035045 31 0 1.6 14.5 0.00 0.00 0.00 63 1015.7
20260831034600 31 50 0.0 16.1 0.00 0.00 0.00 63 1015.6
20260831034045 31 0 0.0 16.1 0.00 0.00 0.00 62 1015.5
20260831033545 31 0 0.0 12.9 0.00 0.00 0.00 62 1015.5
20260831033112 31 0 1.6 12.9 0.00 0.00 0.00 62 1015.4
20260831032545 31 0 1.6 11.3 0.00 0.00 0.00 62 1015.4
20260831032048 31 60 1.6 11.3 0.00 0.00 0.00 61 1015.3
20260831031556 31 58 3.2 11.3 0.00 0.00 0.00 61 1015.2
20260831031047 31 0 0.0 6.4 0.00 0.00 0.00 61 1015.2
20260831030548 31 0 1.6 4.8 0.00 0.00 0.00 61 1015.0
20260831030107 31 0 0.0 4.8 0.00 0.00 0.00 61 1014.9